Showing default

NUSAT-48 (H. LEAVITT), 60498

Orbit data source: Space-Track

NUSAT-48 (H. LEAVITT), 60498 is a payload satellite owned by URUGUS S.A. (AR) in SSO that was launched on Fri, 16 Aug 2024 UTC via an FALCON 9 launch vehicle from the Air Force Western Test Range (AFWTR). Payload-class satellites include a variety of spacecraft equipped with specific instruments for various scientific and technological missions. These include communications satellites like Starlink; space stations such as the ISS; scientific satellites like the Hubble; Earth observation satellites from companies like Planet Labs, Umbra, and HawkEye 360; GPS; miniature CubeSats for education and research; and military/defense satellites.

Loading next visibility...
Identifier
60498, 2024-149AG
Orbit
SSO
Country
Flag of UnknownUnknown / ARGN
Related business
Manufacturer
URUGUS S.A.
Mission
Operational Commercial Imaging
Bus & Motor
NEWSAT V, Unknown motor
Mass
41.5 kg wet, 38.5 kg dry
Launch date (UTC)
2024-08-16 (1 year ago)
Launch vehicle
FALCON 9
Launch site
Air Force Western Test Range (AFWTR)
Object type
Payload
Rocket body
Debris
Shape & HBR
Box, 1.0 m
Radar Cross Section
0.542 m², Medium (>0.1 m² and < 1m²)

Expand to show TLE details & history
Last TLE update: 4 hours ago

TLE from 4 hours ago
0 NUSAT-48 (H. LEAVITT)
1 60498U 24149AG  26035.17724808  .00014903  00000-0  49507-3 0  9995
2 60498  97.3939 117.3771 0004203  38.3246 321.8293 15.31294370 81801
Epoch: 2026-02-04T04:15Z
TLE epoch observation values (Epoch: 2026-02-04T04:15:14.234Z)
Latitude
-0.00003°
Longitude
-80.77978°
Altitude
472.792 km
Speed
7.631 km/s
True Right ascension
07h 49m 30s
True Declination
0° 00' 00"
Sunlit
Object was in full shadow at epoch
Visualization orbit readout
Latitude
Unknown
Longitude
Unknown
Altitude
Unknown
Speed
Unknown
Apparent Right ascension
Unknown
Apparent Declination
Unknown
Sunlit
N/A
Visualization observer readout
Local Sidereal Time
10:42:35
Azimuth
Unknown
Elevation
Unknown
Doppler factor
Unknown
Orbital elements
Apogee altitude
471.778 km
Perigee altitude
466.022 km
Semi-major axis
6,847.037 km
Eccentricity
0.00042
Inclination
97.3939°
RAAN
117.3771°
Arg. of periapsis
38.3246°
True anomaly
321.79952°
Mean anomaly
321.8293°
Eccentric anomaly
321.81441°
Mean motion
3.8308 °/min
Orbital period
93.98 mins
BSTAR
0.00049507
Loading maneuver chart data...
Computing Atmospheric mass density...
Loading historical data...
Loading historical data...
Loading historical data...
Loading historical data...
Loading historical data...
Loading historical data...
Loading historical data...

Documentation

Showing up to 5 results
|